Other Surface Observations
Issued by NWS

Home | Current Version | Previous Version | Text Only | Print | Product List | Glossary On
Versions: 1 2 3 4 5 6 7 8 9 10 11 12 13 14 15 16 17 18 19 20 21 22 23 24 25 26 27 28 29 30 31 32 33 34 35 36 37 38 39 40 41 42 43 44 45 46 47 48 49 50
000
SXUS52 KTAE 020605
OSOTAE
OSOTAE
North Florida/South Alabama/Southwest Georgia Weather Roundup
National Weather Service Tallahassee Florida
200 AM EDT THU OCT 02 2014

Note: "fair" indicates few or no clouds below 12,000 feet with no
significant weather and/or obstructions to visibility.

!FLZ017-115-028-034-025-020700
...North Florida...

CITY           SKY/WX    TMP DP  RH WIND       PRES   REMARKS
TALLAHASSEE    CLEAR     70  68  93 CALM      30.01S
APALACHICOLA   CLEAR     73  69  87 NE3       29.99F
PERRY          CLEAR     68  66  94 CALM      30.01F
CROSS CITY       N/A     73  71  93 CALM      30.00S
JACKSONVILLE   CLOUDY    71  71 100 N3        30.00S
$$

!FLZ112-006-005-002-011-020700
...Florida Panhandle...

CITY           SKY/WX    TMP DP  RH WIND       PRES   REMARKS
MARIANNA       MOCLDY    70  70 100 CALM      30.00S
BONIFAY        FAIR      67  67 100 CALM      30.01S FOG
PANAMA CITY NW FAIR      72  69  90 CALM      29.99S
TYNDALL AFB    CLOUDY    73  73  99 E1        30.00S
TYND DRONE APT NOT AVBL
DE FUNIAK SPR  FAIR      69  68  96 CALM      30.00S
EGLIN AFB      PTCLDY    71  69  91 CALM      29.98F
DESTIN         MOCLDY    75  72  90 CALM      29.98F
HURLBURT       PTCLDY    70  66  85 NE2       29.97F
CRESTVIEW      PTCLDY    66  65  96 CALM      30.00F FOG
PENSACOLA      PTCLDY    72  71  97 CALM      29.97F
$$

!ALZ063-066-020700
...South Alabama...

CITY           SKY/WX    TMP DP  RH WIND       PRES   REMARKS
DOTHAN         CLEAR     68  66  93 SE5       30.04F
OZARK CAIRNS   CLEAR     68  65  90 E3        30.00F
FT RUCKER HELI CLEAR     66  64  93 CALM      29.99F
RUCKER HELI 3  FAIR      66  66  97 N1        30.03S
RUCKER HELI 2  FAIR      67  65  93 CALM      30.00F
FLORALA APT    CLEAR     68  64  87 CALM      30.01F
ANDALUSIA      CLEAR     69  65  86 CALM      30.00S
TROY           CLEAR     64  62  93 CALM      30.02S
EUFALA         FAIR      64  62  93 CALM      30.01S
MOBILE         NOT AVBL
$$

!GAZ120>161-020700
...Southwest and South Central Georgia...

CITY           SKY/WX    TMP DP  RH WIND       PRES   REMARKS
THOMASVILLE    FAIR      68  68 100 CALM      30.04R
BAINBRIDGE     PTCLDY    72  70  94 CALM      30.02S
MOODY AFB      CLOUDY    69  68  94 CALM      30.02F
VALDOSTA       MOCLDY    68  66  93 CALM      30.02F
MOULTRIE       CLEAR     68  68 100 CALM      30.03S
BLAKELY        CLEAR     68  66  94 CALM        N/A
ALBANY         CLEAR     68  66  93 CALM      30.04S
TIFTON         CLOUDY    66  66  99 CALM      30.04R
FITZGERALD     FOG       68  66  92 CALM      30.06S VSB 1
CORDELE        FAIR      67  65  94 CALM      30.04S
AMERICUS       FAIR      63  63 100 CALM      30.05S
HOMERVILLE     CLOUDY    72  72 100 CALM      30.03S
$$

!GMZ750-755-770-775-020700
...Coastal and Buoy Obs...

STATION/POSITION TIME  TEMP    WIND        PRES    VSBY  WAVE
                       AIR SEA DIR/SP/G                  HT/PER
                 (UTC) (F)     (DEG/KT/KT) (MB)    (MI)  (FT/S)
KEATON BEACH     0600   72      80/  4/  5 1016.0F
CEDAR KEY        0500   77      70/  8/ 10 1016.2R
C TOWER          0600   79      80/  6/  7 1015.6S
APALACHICOLA BUO 0600   81 83   70/  6/  6 1015.4F         1
PANAMA CITY BUOY NOT AVBL
MOBILE BUOY      0530   81 82  140/ 12/ 14 1014.6F         1/ 3
ORANGE BCH AL BU 0600   80 82  160/ 10/ 12 1014.6F         1/ 3
$$



USA.gov is the U.S. government's official web portal to all federal, state and local government web resources and services.